NOAA 16 DEB, 41492

Orbit data source: Space-Track

NOAA 16 DEB, 41492 is space debris in SSO originally from a launch on Thu, 21 Sep 2000 UTC launched from the Air Force Western Test Range (AFWTR). Debris objects in space refer to the collection of defunct objects orbiting the Earth. Examples of debris include non-operational satellites, rocket bodies, and fragments generated from explosions, collisions, or faulty payload assembly.

Loading next visibility...
Identifier
41492, 2000-055LQ
Orbit
SSO
Country
Flag of USUS
Related business
Manufacturer
Unknown
Mission
Spacecraft
Bus & Motor
Unknown
Mass
Unknown
Launch date (UTC)
2000-09-21 (26 years ago)
Launch vehicle
Unknown
Launch site
Air Force Western Test Range (AFWTR)
Object type
Payload
Rocket body
Debris
Shape & HBR
Unknown shape, 0.1 m
Radar Cross Section
Small (<0.1 m²)

Expand to show TLE details & history
Last TLE update: 1 week ago

TLE from 1 week ago
0 NOAA 16 DEB
1 41492U 00055LQ  26166.53878472  .00003952  00000-0  22672-2 0  9995
2 41492  98.8802 101.4103 0095260 214.0403 145.4633 14.07669452522024
Epoch: 2026-06-15T12:55Z
TLE epoch observation values (Epoch: 2026-06-15T12:55:50.999Z)
Latitude
0.00002°
Longitude
3.62407°
Altitude
927.327 km
Speed
7.359 km/s
True Right ascension
06h 45m 38s
True Declination
0° 00' 00"
Sunlit
Object was in daylight at epoch
Visualization orbit readout
Latitude
Unknown
Longitude
Unknown
Altitude
Unknown
Speed
Unknown
Apparent Right ascension
Unknown
Apparent Declination
Unknown
Sunlit
N/A
Visualization observer readout
Local Sidereal Time
21:40:47
Azimuth
Unknown
Elevation
Unknown
Doppler factor
Unknown
Orbital elements
Apogee altitude
933.534 km
Perigee altitude
795.547 km
Semi-major axis
7,242.678 km
Eccentricity
0.00953
Inclination
98.8802°
RAAN
101.4103°
Arg. of periapsis
214.0403°
True anomaly
146.07614°
Mean anomaly
145.4633°
Eccentric anomaly
145.77032°
Mean motion
3.52123 °/min
Orbital period
102.24 mins
BSTAR
0.0022672
Loading maneuver chart data...
Computing Atmospheric mass density...
Loading historical data...
Loading historical data...
Loading historical data...
Loading historical data...
Loading historical data...
Loading historical data...
Loading historical data...

Documentation

Showing up to 5 results
|